Regional Weather Roundup
Issued by NWS

Home | Current Version | Previous Version | Text Only | Print | Product List | Glossary Off
Versions: 1 2 3 4 5 6 7 8 9 10 11 12 13 14 15 16 17 18 19 20 21 22 23 24 25 26 27 28

000
ASUS45 KBOI 082110
RWRID

IDAHO REGIONAL WEATHER ROUNDUP
NATIONAL WEATHER SERVICE BOISE ID
200 PM MST THU DEC 08 2016

NOTE: "FAIR" INDICATES FEW OR NO CLOUDS BELOW 12000 FEET
WITH NO SIGNIFICANT WEATHER AND/OR OBSTRUCTIONS TO VISIBILITY

IDZ012-014-082200-
SOUTHWEST IDAHO


CITY           SKY/WX    TMP DP  RH WIND       PRES   REMARKS
BOISE          SNOW      25  22  88 SE10      30.14F VSB 1/2 WCI  15
CALDWELL       LGT SNOW  23  20  88 SE15      30.17F FOG     WCI  10
MOUNTAIN HOME  LGT SNOW  23  21  93 SE21      30.14F VSB 3/4 WCI   8
$$

IDZ016-017-082200-
SOUTHCENTRAL IDAHO


CITY           SKY/WX    TMP DP  RH WIND       PRES   REMARKS
JEROME         LGT SNOW  19  16  88 NE22      30.12F VSB 3/4 WCI   2
TWIN FALLS     SNOW      19  15  84 E14       30.11F VSB 1/2 WCI   6
$$

IDZ019>023-082200-
SOUTHEAST IDAHO


CITY           SKY/WX    TMP DP  RH WIND       PRES   REMARKS
IDAHO FALLS    CLOUDY    20   5  52 CALM      30.18F
POCATELLO      LGT SNOW  17  10  74 NE9       30.18F WCI   6
REXBURG        CLOUDY    13   2  61 NE5       30.18F WCI   5
$$

IDZ006-010-011-018-031-032-082200-
CENTRAL IDAHO MOUNTAINS


CITY           SKY/WX    TMP DP  RH WIND       PRES   REMARKS
MCCALL         LGT SNOW  11   6  81 CALM      30.00F
HAILEY         LGT SNOW  19   9  63 W5        30.12F WCI  13
STANLEY          N/A     -2  -7  79 CALM      30.05F
SALMON         CLOUDY    10   1  67 CALM      30.19F
CHALLIS        CLOUDY     9   1  70 CALM      30.14F
$$

IDZ002-004-006-007-026-082200-
NORTHERN IDAHO


CITY           SKY/WX    TMP DP  RH WIND       PRES   REMARKS
LEWISTON       FAIR      23  14  68 SE3       30.18F
LOWELL           N/A     25  12  58 CALM      30.26F
COEUR D`ALENE  FAIR      22   8  55 N17G25    30.21F WCI   8
MULLAN PASS    CLOUDY     2  -1  88 E7        29.97F FOG     WCI -11
$$




USA.gov is the U.S. government's official web portal to all federal, state and local government web resources and services.